OBJECT C, 60205

Orbit data source: Space-Track

You're viewing an Uncataloged Satellite

Recently launched and/or uncataloged satellites may have evolving metadata. Metadata may include but not limited to: Owner, Maufacturer, Bus, Motor, and Mission.

OBJECT C, 60205 is a satellite owned by Teachers in Space (US) in SSO that was launched on Thu, 04 Jul 2024 UTC via an FIREFLY ALPHA launch vehicle from the Air Force Western Test Range (AFWTR). Unknown objects in Earth's orbit typically refer to objects detected orbiting the Earth but have not yet been identified or cataloged. These objects could be anything from previously untracked satellites, spent rocket stages, debris from satellite collisions, or even natural meteoroids temporarily captured by Earth's gravity.

Loading next visibility...
Identifier
60205, 2024-125C
Orbit
SSO
Last TLE update
12 hours ago
Origin
Flag of USTIS (US)
Manufacturer
Quub
Mission
Operational spacecraft
Bus & Motor
CUBESAT 3U, Unknown motor
Mass
3 kg wet, 3 kg dry
Launch date (UTC)
2024-07-04 (1 year ago)
Launch vehicle
FIREFLY ALPHA
Launch site
Air Force Western Test Range (AFWTR)
Object type
Unknown
Shape & HBR
Unknown
Radar Cross Section
Small (<0.1 m²)

Expand to show TLE details & history

TLE from 12 hours ago
0 OBJECT C
1 60205U 24125C   25188.82404578  .00020711  00000-0  45844-3 0  9998
2 60205  97.2743  42.0628 0014201  27.0805 333.1181 15.43715470 56423
Epoch: 2025-07-07T19:46Z
TLE epoch observation values (Epoch: 2025-07-07T19:46:37.555Z)
Latitude
-0.00004°
Longitude
179.37848°
Altitude
429.652 km
Speed
7.659 km/s
True Right ascension
02h 48m 15s
True Declination
0° 00' 00"
Sunlit
Object was in daylight at epoch
Visualization orbit readout
Latitude
5.32656°
Longitude
179.21974°
Altitude
428.572 km
Speed
7.66 km/s
Apparent Right ascension
05h 01m 29s
Apparent Declination
-21° 19' 25"
Sunlit
Object is in daylight
Visualization observer readout
Local Sidereal Time
20:20:25
Azimuth
81.403° E
Elevation
-44.039°
Doppler factor
1
Orbital elements
Apogee altitude
441.755 km
Perigee altitude
422.412 km
Semi-major axis
6,810.221 km
Eccentricity
0.00142
Inclination
97.2743°
RAAN
42.0628°
Arg. of periapsis
27.0805°
True anomaly
Unknown
Mean anomaly
333.1181°
Eccentric anomaly
Unknown
Mean motion
3.8619 °/min
Orbital period
93.22 mins
BSTAR
0.00045844
Loading maneuver chart data...
Loading SW <> Apogee altitude chart data...
Loading historical data...
Loading historical data...
Loading historical data...
Loading historical data...
Loading historical data...
Loading historical data...
Loading historical data...

OBJECT C Visibility forecast

Observer location: undefined°, undefined°

Span
Click to sort rows by Start time (UTC) header in descending order
Start Az.
Max El. time (UTC)
Max El. Az.
Max El.
End time (UTC)
End Az.
5 mins2025-07-08 14:34:44.347Z190.15° SSW2025-07-08 14:36:44.347Z245.645° WSW36.074°2025-07-08 14:39:44.347Z334.681° NNW
4 mins2025-07-09 03:27:44.347Z343.911° N2025-07-09 03:29:44.347Z262.93° W33.174°2025-07-09 03:31:44.347Z217.748° SW
|